Weather History for Fremont, MI

Change the Weather History Date:

Wednesday, April 24, 2013

  Actual Average (KMKG) Record (KMKG)
Temperature  
Mean Temperature 40 °F 50 °F  
Max Temperature 46 °F 60 °F 81 °F (1990)
Min Temperature 33 °F 40 °F 24 °F (1918)
Degree Days  
Heating Degree Days 26 15  
Month to date heating degree days 471  
Since 1 July heating degree days 6133  
Cooling Degree Days 0 0  
Month to date cooling degree days 0  
Year to date cooling degree days 0  
Moisture  
Dew Point 27 °F    
Average Humidity 67    
Maximum Humidity 93    
Minimum Humidity 33    
Precipitation  
Precipitation 0.00 in 0.09 in 1.71 in (1976)
Month to date precipitation 2.32  
Year to date precipitation 8.43  
Snow  
Snow 0.00 in 0.00 in 3.50 in (1980)
Month to date snowfall 2.3  
Since 1 July snowfall 93.7  
Snow Depth -    
Sea Level Pressure  
Sea Level Pressure 29.95 in    
Wind  
Wind Speed 11 mph (WNW)    
Max Wind Speed 20 mph    
Max Gust Speed 25 mph    
Visibility 10 miles    
Events Snow    
T = Trace of Precipitation, MM = Missing Value Source: NWS Daily Summary

Daily Weather History Graph

Daily Weather History Graph

Search for Another Location

Airport:

Trip Planner

Search our weather history database for the weather conditions in past years. The results will help you decide how hot, cold, wet, or windy it might be!

Date:

Astronomy

Apr. 24, 2013 Rise Set
Actual Time 6:46 AM EDT 8:38 PM EDT
Civil Twilight 6:16 AM EDT 9:08 PM EDT
Nautical Twilight 5:38 AM EDT 9:46 PM EDT
Astronomical Twilight 4:58 AM EDT 10:26 PM EDT
Moon 7:39 PM EDT (4/24) 5:52 AM EDT (4/24)
Length of Visible Light 14h 52m
Length of Day
13h 51m
Waxing Gibbous, 98% of the Moon is Illuminated
Apr 24
Waxing Gibbous
Apr 25
Full
May 2
Last Quarter
May 9
New
May 18
First Quarter

Hourly Weather History & Observations

Time (EDT) Temp. Windchill Dew Point Humidity Pressure Visibility Wind Dir Wind Speed Gust Speed Precip Events Conditions
12:15 AM 34.9 °F 26.6 °F 32.9 °F 92% 29.90 in 10.0 mi NNW 11.5 mph - N/A   Overcast
12:34 AM 34.9 °F 26.6 °F 32.2 °F 90% 29.91 in 10.0 mi NNW 11.5 mph 17.3 mph N/A   Overcast
12:55 AM 34.7 °F 25.9 °F 32.0 °F 90% 29.89 in 10.0 mi NNW 12.7 mph 19.6 mph N/A   Overcast
1:14 AM 34.7 °F 26.4 °F 32.0 °F 90% 29.89 in 10.0 mi NNW 11.5 mph 17.3 mph N/A   Overcast
1:35 AM 34.7 °F 25.5 °F 32.2 °F 91% 29.91 in 10.0 mi NNW 13.8 mph - N/A   Overcast
1:55 AM 34.5 °F 25.3 °F 32.0 °F 90% 29.90 in 10.0 mi NNW 13.8 mph 18.4 mph N/A   Overcast
2:15 AM 34.2 °F 25.7 °F 31.8 °F 91% 29.90 in 10.0 mi NNW 11.5 mph - N/A   Overcast
2:35 AM 34.2 °F 26.2 °F 31.6 °F 90% 29.90 in 10.0 mi NNW 10.4 mph - N/A   Overcast
2:55 AM 34.0 °F 27.2 °F 31.6 °F 91% 29.90 in 10.0 mi NNW 8.1 mph 16.1 mph N/A   Overcast
3:15 AM 34.0 °F 26.6 °F 31.6 °F 91% 29.90 in 10.0 mi NNW 9.2 mph - N/A   Overcast
3:35 AM 33.4 °F 25.9 °F 31.1 °F 91% 29.91 in 7.0 mi NNW 9.2 mph 17.3 mph N/A Snow Light Snow
3:55 AM 33.4 °F 23.5 °F 31.1 °F 91% 29.90 in 10.0 mi NNW 15.0 mph - N/A   Overcast
4:15 AM 33.3 °F 24.6 °F 31.5 °F 93% 29.91 in 10.0 mi NW 11.5 mph 17.3 mph N/A Snow Light Snow
4:34 AM 33.4 °F 23.9 °F 30.6 °F 89% 29.90 in 10.0 mi NNW 13.8 mph 18.4 mph N/A   Overcast
4:55 AM 33.6 °F 25.0 °F 30.2 °F 87% 29.90 in 10.0 mi NNW 11.5 mph 16.1 mph N/A   Overcast
5:15 AM 33.4 °F 24.8 °F 29.8 °F 87% 29.89 in 10.0 mi NNW 11.5 mph - N/A   Overcast
5:35 AM 33.1 °F 25.5 °F 29.8 °F 88% 29.91 in 10.0 mi NNW 9.2 mph 17.3 mph N/A   Mostly Cloudy
5:55 AM 33.3 °F 25.7 °F 30.2 °F 89% 29.91 in 10.0 mi NW 9.2 mph - N/A   Overcast
6:15 AM 33.4 °F 26.6 °F 30.4 °F 89% 29.93 in 10.0 mi NW 8.1 mph - N/A   Overcast
6:35 AM 33.4 °F 25.4 °F 30.0 °F 87% 29.92 in 10.0 mi NNW 10.4 mph - N/A   Overcast
6:54 AM 33.3 °F 26.4 °F 29.8 °F 87% 29.92 in 10.0 mi NNW 8.1 mph - N/A   Overcast
7:15 AM 33.3 °F 25.1 °F 29.8 °F 87% 29.92 in 10.0 mi NW 10.4 mph - N/A   Overcast
7:35 AM 33.6 °F 25.6 °F 30.2 °F 87% 29.93 in 10.0 mi NNW 10.4 mph - N/A   Overcast
7:55 AM 33.8 °F 27.0 °F 30.0 °F 86% 29.93 in 10.0 mi NNW 8.1 mph - N/A   Overcast
8:15 AM 34.0 °F 26.6 °F 30.0 °F 85% 29.93 in 10.0 mi NNW 9.2 mph - N/A   Mostly Cloudy
8:34 AM 34.3 °F 25.9 °F 29.8 °F 84% 29.93 in 10.0 mi NW 11.5 mph 16.1 mph N/A   Overcast
8:55 AM 34.7 °F 26.4 °F 29.8 °F 82% 29.94 in 10.0 mi NNW 11.5 mph 16.1 mph N/A   Overcast
9:14 AM 34.7 °F 25.5 °F 28.9 °F 79% 29.94 in 10.0 mi NNW 13.8 mph 17.3 mph N/A   Overcast
9:35 AM 34.9 °F 25.7 °F 28.9 °F 79% 29.93 in 10.0 mi NNW 13.8 mph - N/A   Overcast
9:55 AM 34.9 °F 27.1 °F 28.0 °F 76% 29.94 in 10.0 mi NNW 10.4 mph - N/A   Overcast
10:15 AM 35.2 °F 26.6 °F 28.9 °F 78% 29.93 in 10.0 mi NNW 12.7 mph - N/A   Overcast
10:35 AM 36.5 °F 28.2 °F 29.7 °F 76% 29.92 in 10.0 mi NNW 12.7 mph - N/A   Overcast
10:55 AM 37.2 °F 29.6 °F 27.9 °F 69% 29.92 in 10.0 mi NNW 11.5 mph 17.3 mph N/A   Overcast
11:15 AM 37.8 °F 29.0 °F 28.0 °F 68% 29.93 in 10.0 mi NNW 15.0 mph - N/A   Overcast
11:35 AM 38.3 °F 30.5 °F 28.2 °F 67% 29.94 in 10.0 mi NNW 12.7 mph - N/A   Overcast
11:54 AM 38.5 °F 31.1 °F 29.1 °F 69% 29.94 in 10.0 mi WNW 11.5 mph - N/A   Overcast
12:15 PM 39.0 °F 31.8 °F 28.4 °F 66% 29.94 in 10.0 mi WNW 11.5 mph 17.3 mph N/A   Overcast
12:35 PM 39.7 °F 31.2 °F 28.0 °F 63% 29.93 in 10.0 mi WNW 16.1 mph - N/A   Mostly Cloudy
12:55 PM 41.5 °F 34.2 °F 27.5 °F 57% 29.93 in 10.0 mi WNW 13.8 mph 17.3 mph N/A   Mostly Cloudy
1:15 PM 42.1 °F 36.1 °F 26.2 °F 53% 29.93 in 10.0 mi NW 10.4 mph 18.4 mph N/A   Scattered Clouds
1:35 PM 43.2 °F 36.6 °F 24.4 °F 48% 29.93 in 10.0 mi WNW 12.7 mph 24.2 mph N/A   Scattered Clouds
1:55 PM 43.0 °F 36.4 °F 23.2 °F 46% 29.93 in 10.0 mi WNW 12.7 mph 19.6 mph N/A   Scattered Clouds
2:15 PM 43.2 °F 36.2 °F 23.2 °F 45% 29.93 in 10.0 mi WNW 13.8 mph 19.6 mph N/A   Scattered Clouds
2:34 PM 44.4 °F 37.5 °F 22.6 °F 42% 29.94 in 10.0 mi NW 15.0 mph 18.4 mph N/A   Scattered Clouds
2:55 PM 44.6 °F 37.4 °F 21.6 °F 40% 29.95 in 10.0 mi WNW 16.1 mph 20.7 mph N/A   Scattered Clouds
3:15 PM 44.1 °F 38.1 °F 23.5 °F 44% 29.95 in 10.0 mi West 11.5 mph 23.0 mph N/A   Scattered Clouds
3:34 PM 45.0 °F 37.1 °F 20.8 °F 38% 29.95 in 10.0 mi West 19.6 mph 25.3 mph N/A   Mostly Cloudy
3:55 PM 45.0 °F 37.6 °F 19.4 °F 36% 29.96 in 10.0 mi WNW 17.3 mph 24.2 mph N/A   Scattered Clouds
4:14 PM 45.3 °F 38.1 °F 18.7 °F 35% 29.97 in 10.0 mi WNW 17.3 mph 21.9 mph N/A   Clear
4:35 PM 45.7 °F 39.1 °F 18.1 °F 33% 29.97 in 10.0 mi WNW 15.0 mph 20.7 mph N/A   Clear
4:55 PM 45.9 °F 39.1 °F 19.6 °F 35% 29.97 in 10.0 mi WNW 16.1 mph 24.2 mph N/A   Clear
5:15 PM 46.4 °F 40.7 °F 20.3 °F 36% 29.97 in 10.0 mi West 12.7 mph 18.4 mph N/A   Clear
5:35 PM 46.4 °F 40.4 °F 19.8 °F 35% 29.98 in 10.0 mi WNW 13.8 mph 21.9 mph N/A   Clear
5:54 PM 46.6 °F - 20.3 °F 35% 29.98 in 10.0 mi WSW 16.1 mph 20.7 mph N/A   Clear
6:15 PM 45.7 °F 40.2 °F 20.3 °F 37% 29.99 in 10.0 mi West 11.5 mph 16.1 mph N/A   Clear
6:35 PM 45.7 °F 40.2 °F 20.7 °F 37% 29.99 in 10.0 mi WSW 11.5 mph - N/A   Clear
6:54 PM 44.6 °F 39.7 °F 20.3 °F 38% 30.00 in 10.0 mi WSW 9.2 mph 16.1 mph N/A   Clear
7:15 PM 43.9 °F 38.3 °F 20.8 °F 40% 30.00 in 10.0 mi SW 10.4 mph - N/A   Clear
7:35 PM 43.0 °F 38.2 °F 21.7 °F 43% 30.00 in 10.0 mi SW 8.1 mph - N/A   Clear
7:55 PM 42.3 °F 37.3 °F 22.1 °F 45% 30.01 in 10.0 mi SSW 8.1 mph - N/A   Clear
8:15 PM 40.1 °F 32.7 °F 23.5 °F 52% 30.01 in 10.0 mi SSW 12.7 mph - N/A   Clear
8:35 PM 38.8 °F 32.6 °F 22.3 °F 51% 30.02 in 10.0 mi SSW 9.2 mph - N/A   Clear
8:55 PM 37.4 °F 32.1 °F 23.5 °F 57% 30.03 in 10.0 mi SSW 6.9 mph - N/A   Clear
9:14 PM 35.4 °F 29.0 °F 24.6 °F 65% 30.03 in 10.0 mi South 8.1 mph - N/A   Clear
9:35 PM 34.9 °F 29.0 °F 24.8 °F 67% 30.04 in 10.0 mi South 6.9 mph - N/A   Clear
9:55 PM 34.2 °F 28.2 °F 24.8 °F 69% 30.05 in 10.0 mi South 6.9 mph - N/A   Clear
10:55 PM 34.3 °F 29.2 °F 23.9 °F 66% 30.06 in 10.0 mi South 5.8 mph - N/A   Clear
11:14 PM 33.8 °F 28.6 °F 24.3 °F 68% 30.06 in 10.0 mi South 5.8 mph - N/A   Clear
11:35 PM 34.5 °F 31.6 °F 23.9 °F 65% 30.06 in 10.0 mi SSE 3.5 mph - N/A   Clear
11:55 PM 34.2 °F 31.2 °F 23.5 °F 65% 30.06 in 10.0 mi SSE 3.5 mph - N/A   Clear